KC3QWH Weather Reports


time (UTC)temp
C
wind
direction
speed
KPH
gust
KPH
rain 1hr
cm
rain 24hr
cm
rain mn
cm
humidity
%
barometer
mb
20260504081556 7 268 4.8 6.4 0.00 0.00 0.00 65 1014.9
20260504044556 8 275 6.4 9.7 0.00 0.00 0.00 57 1014.8
20260504043101 9 226 1.6 6.4 0.00 0.00 0.00 55 1014.8
20260504041555 9 271 4.8 8.0 0.00 0.00 0.00 56 1014.7
20260504040132 8 240 3.2 4.8 0.00 0.00 0.00 57 1014.7
20260504034602 9 232 3.2 4.8 0.00 0.00 0.00 56 1014.6
20260504033058 9 228 4.8 6.4 0.00 0.00 0.00 55 1014.5
20260504031608 9 234 1.6 3.2 0.00 0.00 0.00 54 1014.4
20260504030053 9 256 3.2 3.2 0.00 0.00 0.00 54 1014.2
20260504024555 10 216 1.6 3.2 0.00 0.00 0.00 55 1014.4
20260504023056 10 248 1.6 3.2 0.00 0.00 0.00 51 1014.3
20260504021557 10 237 3.2 3.2 0.00 0.00 0.00 50 1014.5
20260504020109 10 229 3.2 4.8 0.00 0.00 0.00 49 1014.3
20260504014558 11 276 1.6 4.8 0.00 0.00 0.00 46 1014.1
20260504013058 11 239 1.6 3.2 0.00 0.00 0.00 45 1014.1
20260504011556 11 239 1.6 1.6 0.00 0.00 0.00 44 1014.0
20260504010058 12 238 0.0 1.6 0.00 0.00 0.00 43 1013.9
20260504004556 12 251 0.0 3.2 0.00 0.00 0.00 41 1013.8
20260504003053 13 270 3.2 6.4 0.00 0.00 0.00 40 1013.6
20260504001559 13 258 3.2 6.4 0.00 0.00 0.00 39 1013.7
20260504000059 13 308 1.6 6.4 0.00 0.00 0.00 39 1013.5
20260503234623 13 271 4.8 14.5 0.00 0.00 0.00 38 1013.2
20260503233057 14 293 1.6 16.1 0.00 0.00 0.00 37 1013.2
20260503231558 15 314 4.8 14.5 0.00 0.00 0.00 36 1013.1
20260503230056 15 283 4.8 17.7 0.00 0.00 0.00 36 1013.1
20260503224559 15 295 6.4 16.1 0.00 0.00 0.00 36 1013.1
20260503223057 15 245 6.4 22.5 0.00 0.00 0.00 36 1013.0
20260503221601 15 316 4.8 24.1 0.00 0.00 0.00 35 1013.1
20260503220059 16 258 8.0 20.9 0.00 0.00 0.00 37 1013.0
20260503214558 15 312 8.0 22.5 0.00 0.00 0.00 36 1013.1
20260503213057 16 312 6.4 25.7 0.00 0.00 0.00 36 1013.1
20260503211600 16 314 6.4 25.7 0.00 0.00 0.00 35 1012.9
20260503210054 16 18 6.4 22.5 0.00 0.00 0.00 35 1013.0
20260503204557 16 187 9.7 22.5 0.00 0.00 0.00 36 1012.9
20260503203058 16 4 6.4 19.3 0.00 0.00 0.00 36 1013.0
20260503201558 16 303 4.8 27.4 0.00 0.00 0.00 38 1013.2
20260503200059 15 39 9.7 25.7 0.00 0.00 0.00 35 1013.2
20260503194604 15 30 6.4 17.7 0.00 0.00 0.00 36 1013.4
20260503193059 14 216 3.2 17.7 0.00 0.00 0.00 40 1013.6
20260503191555 14 263 8.0 24.1 0.00 0.00 0.00 37 1013.6
20260503190103 14 325 11.3 24.1 0.00 0.00 0.00 36 1013.9
20260503184558 13 259 9.7 20.9 0.00 0.00 0.00 37 1014.2
20260503183102 14 320 9.7 32.2 0.00 0.00 0.00 37 1014.5
20260503181557 13 330 12.9 27.4 0.00 0.00 0.00 36 1014.6
20260503180109 13 299 6.4 25.7 0.00 0.00 0.00 39 1014.5
20260503174601 13 300 8.0 20.9 0.00 0.00 0.00 38 1014.7
20260503173057 12 27 11.3 27.4 0.00 0.00 0.00 39 1014.8
20260503171553 12 353 9.7 29.0 0.00 0.00 0.00 44 1014.9
20260503140107 8 319 11.3 22.5 0.00 0.00 0.00 48 1016.0